CIVIC ENGM-ENML

Flight info

Callsign CIVIC
Flight time 0h 41m
Altitude 34000
Route EVTOG DCT PIGED DCT VEPUL
Aircraft HDJT/L-SABDGRWY/H

Departure

Time 2026-04-15 14:41
Airport Oslo-Gardermoen International Airport (ENGM)

Arrival

Time 2026-04-15 15:22
Airport Molde Airport, Årø (ENML)
Time Latitude Longitude Altitude Speed Heading
2026-04-15 14:23 60.20555 11.07852 680 ft 0 kts 15°
2026-04-15 14:36 60.20572 11.07909 680 ft 11 kts 101°
2026-04-15 14:36 60.20542 11.08020 680 ft 6 kts 200°
2026-04-15 14:36 60.20493 11.07987 677 ft 10 kts 197°
2026-04-15 14:37 60.20407 11.07939 673 ft 14 kts 195°
2026-04-15 14:37 60.20336 11.07968 674 ft 9 kts 110°
2026-04-15 14:37 60.20327 11.08037 676 ft 0 kts 105°
2026-04-15 14:39 60.20316 11.08113 678 ft 12 kts 105°
2026-04-15 14:39 60.20291 11.08300 677 ft 14 kts 108°
2026-04-15 14:40 60.20258 11.08394 678 ft 0 kts 55°
2026-04-15 14:40 60.20273 11.08397 678 ft 8 kts
2026-04-15 14:40 60.20564 11.08563 678 ft 86 kts 16°
2026-04-15 14:40 60.21342 11.09011 987 ft 131 kts 16°
2026-04-15 14:41 60.22301 11.09563 1515 ft 152 kts 18°
2026-04-15 14:41 60.23351 11.10205 2140 ft 162 kts 19°
2026-04-15 14:41 60.24442 11.10887 2800 ft 165 kts 21°
2026-04-15 14:41 60.25599 11.11640 3323 ft 191 kts 21°
2026-04-15 14:42 60.26995 11.12412 3904 ft 223 kts
2026-04-15 14:42 60.28599 11.11869 4786 ft 246 kts 341°
2026-04-15 14:42 60.30119 11.10596 6327 ft 230 kts 338°
2026-04-15 14:42 60.31583 11.08926 7269 ft 250 kts 318°
2026-04-15 14:43 60.32708 11.06141 8208 ft 263 kts 303°
2026-04-15 14:43 60.33703 11.03111 9473 ft 260 kts 304°
2026-04-15 14:43 60.34886 11.00130 9998 ft 285 kts 313°
2026-04-15 14:43 60.36332 10.97176 10326 ft 304 kts 315°
2026-04-15 14:44 60.37780 10.94090 11314 ft 300 kts 311°
2026-04-15 14:44 60.39142 10.90881 12196 ft 303 kts 310°
2026-04-15 14:44 60.40532 10.87721 13033 ft 304 kts 313°
2026-04-15 14:44 60.41960 10.84608 14021 ft 300 kts 313°
2026-04-15 14:45 60.43356 10.81474 14814 ft 299 kts 311°
2026-04-15 14:45 60.44744 10.78307 15485 ft 302 kts 311°
2026-04-15 14:45 60.46163 10.75129 16133 ft 305 kts 312°
2026-04-15 14:45 60.47591 10.71925 16770 ft 308 kts 312°
2026-04-15 14:46 60.49025 10.68665 17392 ft 311 kts 312°
2026-04-15 14:46 60.50478 10.65388 18001 ft 314 kts 312°
2026-04-15 14:46 60.51924 10.62120 18582 ft 317 kts 312°
2026-04-15 14:46 60.53395 10.58771 19093 ft 319 kts 313°
2026-04-15 14:47 60.55093 10.55891 19621 ft 319 kts 328°
2026-04-15 14:47 60.57063 10.53794 20158 ft 320 kts 334°
2026-04-15 14:47 60.59045 10.51723 20668 ft 321 kts 331°
2026-04-15 14:47 60.60934 10.49271 21181 ft 323 kts 326°
2026-04-15 14:48 60.62797 10.46696 21684 ft 324 kts 328°
2026-04-15 14:48 60.64729 10.44311 22188 ft 325 kts 330°
2026-04-15 14:48 60.66682 10.41958 22673 ft 327 kts 329°
2026-04-15 14:48 60.68610 10.39474 23165 ft 328 kts 328°
2026-04-15 14:49 60.70514 10.37000 23636 ft 330 kts 329°
2026-04-15 14:49 60.72473 10.34546 24066 ft 331 kts 329°
2026-04-15 14:49 60.74441 10.32066 24437 ft 333 kts 329°
2026-04-15 14:49 60.76406 10.29537 24812 ft 335 kts 329°
2026-04-15 14:50 60.78379 10.27019 25254 ft 333 kts 329°
2026-04-15 14:50 60.80347 10.24521 25663 ft 334 kts 329°
2026-04-15 14:50 60.82319 10.21989 26017 ft 335 kts 329°
2026-04-15 14:50 60.84300 10.19440 26378 ft 337 kts 329°
2026-04-15 14:51 60.86268 10.16928 26726 ft 338 kts 329°
2026-04-15 14:51 60.88259 10.14364 27148 ft 338 kts 329°
2026-04-15 14:51 60.90245 10.11803 27629 ft 336 kts 329°
2026-04-15 14:51 60.92221 10.09264 28125 ft 334 kts 329°
2026-04-15 14:52 60.94188 10.06720 28620 ft 333 kts 328°
2026-04-15 14:52 60.96141 10.04192 29151 ft 331 kts 328°
2026-04-15 14:52 60.98095 10.01669 29633 ft 332 kts 328°
2026-04-15 14:52 61.00052 9.99127 30145 ft 332 kts 328°
2026-04-15 14:53 61.01977 9.96622 30646 ft 331 kts 328°
2026-04-15 14:53 61.03915 9.94108 31152 ft 328 kts 328°
2026-04-15 14:53 61.05836 9.91603 31668 ft 325 kts 328°
2026-04-15 14:53 61.07736 9.89127 32186 ft 322 kts 328°
2026-04-15 14:54 61.09617 9.86669 32704 ft 318 kts 328°
2026-04-15 14:54 61.11481 9.84232 33221 ft 315 kts 328°
2026-04-15 14:54 61.13315 9.81828 33737 ft 312 kts 327°
2026-04-15 14:54 61.15123 9.79323 34239 ft 310 kts 322°
2026-04-15 14:55 61.16729 9.76266 34305 ft 320 kts 316°
2026-04-15 14:55 61.19992 9.69739 34320 ft 336 kts 317°
2026-04-15 14:56 61.23443 9.62893 34326 ft 349 kts 316°
2026-04-15 14:56 61.26984 9.55818 34317 ft 356 kts 316°
2026-04-15 14:57 61.30553 9.48660 34316 ft 357 kts 316°
2026-04-15 14:57 61.34137 9.41461 34318 ft 358 kts 316°
2026-04-15 14:58 61.37694 9.34292 34325 ft 358 kts 316°
2026-04-15 14:58 61.41268 9.27053 34317 ft 358 kts 316°
2026-04-15 14:59 61.44839 9.19801 34308 ft 358 kts 316°
2026-04-15 14:59 61.48402 9.12542 34296 ft 357 kts 315°
2026-04-15 15:00 61.51935 9.05324 34315 ft 357 kts 315°
2026-04-15 15:00 61.55481 8.98049 34295 ft 357 kts 315°
2026-04-15 15:01 61.59026 8.90749 34293 ft 357 kts 315°
2026-04-15 15:01 61.62560 8.83450 34300 ft 356 kts 315°
2026-04-15 15:02 61.66098 8.76120 34281 ft 358 kts 315°
2026-04-15 15:02 61.69615 8.68813 34279 ft 357 kts 315°
2026-04-15 15:03 61.73151 8.61431 34280 ft 358 kts 315°
2026-04-15 15:03 61.76684 8.54040 34264 ft 358 kts 314°
2026-04-15 15:04 61.80230 8.46589 34257 ft 360 kts 314°
2026-04-15 15:04 61.82007 8.42847 34095 ft 361 kts 314°
2026-04-15 15:04 61.83786 8.39094 33481 ft 360 kts 315°
2026-04-15 15:04 61.85551 8.35356 32868 ft 359 kts 315°
2026-04-15 15:05 61.87298 8.31663 32258 ft 360 kts 316°
2026-04-15 15:05 61.89070 8.27909 31644 ft 361 kts 316°
2026-04-15 15:05 61.90852 8.24119 31028 ft 364 kts 316°
2026-04-15 15:05 61.92641 8.20307 30403 ft 365 kts 317°
2026-04-15 15:06 61.96254 8.12612 29110 ft 370 kts 317°
2026-04-15 15:06 61.98071 8.08709 28478 ft 369 kts 317°
2026-04-15 15:06 61.99880 8.04827 27847 ft 365 kts 318°
2026-04-15 15:07 62.01650 8.01044 27234 ft 372 kts 318°
2026-04-15 15:07 62.03464 7.97149 26596 ft 367 kts 317°
2026-04-15 15:07 62.05214 7.93351 25964 ft 348 kts 317°
2026-04-15 15:07 62.06918 7.89672 25389 ft 350 kts 318°
2026-04-15 15:08 62.08648 7.85968 24795 ft 354 kts 317°
2026-04-15 15:08 62.10362 7.82236 24195 ft 346 kts 317°
2026-04-15 15:08 62.12070 7.78518 23548 ft 352 kts 318°
2026-04-15 15:08 62.13781 7.74821 22947 ft 348 kts 317°
2026-04-15 15:09 62.15456 7.71164 22360 ft 344 kts 317°
2026-04-15 15:09 62.17144 7.67486 21774 ft 347 kts 317°
2026-04-15 15:09 62.18810 7.63847 21190 ft 347 kts 317°
2026-04-15 15:09 62.20497 7.60162 20594 ft 345 kts 316°
2026-04-15 15:10 62.22167 7.56488 20008 ft 343 kts 316°
2026-04-15 15:10 62.23830 7.52844 19414 ft 342 kts 316°
2026-04-15 15:10 62.25487 7.49196 18836 ft 341 kts 316°
2026-04-15 15:10 62.27137 7.45564 18231 ft 338 kts 316°
2026-04-15 15:11 62.28776 7.41958 17651 ft 336 kts 315°
2026-04-15 15:11 62.30400 7.38358 17082 ft 335 kts 315°
2026-04-15 15:11 62.32001 7.34810 16525 ft 334 kts 315°
2026-04-15 15:11 62.33611 7.31248 15953 ft 330 kts 315°
2026-04-15 15:12 62.35209 7.27690 15381 ft 331 kts 315°
2026-04-15 15:12 62.36812 7.24115 14822 ft 331 kts 315°
2026-04-15 15:12 62.38414 7.20574 14261 ft 330 kts 315°
2026-04-15 15:12 62.40010 7.17018 13674 ft 329 kts 314°
2026-04-15 15:13 62.41582 7.13469 13112 ft 326 kts 314°
2026-04-15 15:13 62.43153 7.09961 12558 ft 323 kts 314°
2026-04-15 15:13 62.44692 7.06531 12018 ft 321 kts 314°
2026-04-15 15:13 62.46207 7.03115 11480 ft 305 kts 313°
2026-04-15 15:14 62.47651 6.99859 10847 ft 299 kts 313°
2026-04-15 15:14 62.49087 6.96642 10272 ft 289 kts 313°
2026-04-15 15:14 62.50474 6.93523 9757 ft 286 kts 312°
2026-04-15 15:14 62.51837 6.90418 9269 ft 284 kts 312°
2026-04-15 15:15 62.53195 6.87321 8785 ft 283 kts 312°
2026-04-15 15:15 62.54506 6.84380 8317 ft 266 kts 312°
2026-04-15 15:15 62.55808 6.81438 7865 ft 271 kts 312°
2026-04-15 15:15 62.57093 6.78556 7387 ft 259 kts 315°
2026-04-15 15:16 62.58549 6.76449 6968 ft 247 kts 333°
2026-04-15 15:16 62.60140 6.75138 6560 ft 243 kts 340°
2026-04-15 15:16 62.61719 6.73945 6139 ft 240 kts 339°
2026-04-15 15:16 62.63413 6.73318 5710 ft 251 kts
2026-04-15 15:17 62.65072 6.74427 5299 ft 252 kts 28°
2026-04-15 15:17 62.66382 6.76885 4867 ft 249 kts 54°
2026-04-15 15:17 62.67132 6.80214 4481 ft 243 kts 73°
2026-04-15 15:17 62.67689 6.83685 4191 ft 245 kts 71°
2026-04-15 15:18 62.68292 6.87124 3847 ft 243 kts 71°
2026-04-15 15:18 62.68837 6.90583 3507 ft 240 kts 73°
2026-04-15 15:18 62.69363 6.94031 3166 ft 239 kts 72°
2026-04-15 15:18 62.69733 6.96279 2941 ft 233 kts 71°
2026-04-15 15:19 62.70248 6.99477 2620 ft 216 kts 73°
2026-04-15 15:19 62.70868 7.03470 2227 ft 204 kts 72°
2026-04-15 15:19 62.71180 7.05352 2046 ft 188 kts 72°
2026-04-15 15:19 62.71687 7.08645 1708 ft 160 kts 72°
2026-04-15 15:20 62.71936 7.10156 1555 ft 158 kts 72°
2026-04-15 15:20 62.72281 7.12388 1337 ft 154 kts 74°
2026-04-15 15:20 62.72634 7.14571 1118 ft 152 kts 72°
2026-04-15 15:20 62.72976 7.16777 947 ft 161 kts 73°
2026-04-15 15:21 62.73317 7.18897 663 ft 125 kts 72°
2026-04-15 15:21 62.73574 7.20514 415 ft 109 kts 72°
2026-04-15 15:21 62.73811 7.22030 326 ft 100 kts 73°
2026-04-15 15:21 62.74030 7.23439 196 ft 97 kts 72°
2026-04-15 15:22 62.74265 7.24905 69 ft 105 kts 71°
2026-04-15 15:22 62.74474 7.26276 14 ft 82 kts 69°
2026-04-15 15:22 62.74602 7.27102 14 ft 32 kts 88°
2026-04-15 15:22 62.74647 7.27194 14 ft 1 kts 296°
2026-04-15 15:23 62.74619 7.27084 14 ft 28 kts 240°
2026-04-15 15:23 62.74528 7.26548 14 ft 41 kts 251°
2026-04-15 15:23 62.74516 7.26272 14 ft 9 kts 348°
2026-04-15 15:23 62.74560 7.26248 16 ft 3 kts 338°
2026-04-15 15:24 62.74568 7.26235 17 ft 3 kts 301°
2026-04-15 15:24 62.74547 7.26080 17 ft 17 kts 251°
2026-04-15 15:24 62.74531 7.25923 17 ft 2 kts 336°
2026-04-15 15:24 62.74567 7.25900 18 ft 8 kts 340°
2026-04-15 15:25 62.74571 7.25897 18 ft 0 kts 340°